Regional Weather Roundup
Issued by NWS

Home | Current Version | Previous Version | Text Only | Print | Product List | Glossary On
Versions: 1 2 3 4 5 6 7 8 9 10 11 12 13 14 15 16 17 18 19 20 21 22 23 24 25 26 27 28 29 30 31 32 33 34 35 36 37 38 39 40 41 42 43 44 45 46 47 48 49 50
000
ASUS46 KLOX 250212
RWRCA

SOUTHERN CALIFORNIA WEATHER ROUNDUP
NATIONAL WEATHER SERVICE OXNARD CALIFORNIA
700 PM PDT THU JUL 24 2014

NOTE: "FAIR" INDICATES FEW OR NO CLOUDS BELOW 12,000 FEET WITH NO
SIGNIFICANT WEATHER AND/OR OBSTRUCTIONS TO VISIBILITY.

  -  STATIONS PRECEEDED BY AN ASTERISK (*) ARE NOT NWS OR FAA
     STATIONS AND ARE NOT SUBJECT TO NWS AND FAA QUALITY CONTROL.

CAZ041-042-087-250300-
LA AND ORANGE COUNTY COASTAL AREAS


CITY           SKY/WX    TMP DP  RH WIND       PRES   REMARKS
L.A. DOWNTOWN  SUNNY     84  59  42 W3        29.73S
L.A. AIRPORT   MOSUNNY   74  60  61 W15       29.75S
LONG BEACH     SUNNY     82  60  47 W10       29.74R

CITY           SKY/WX    TMP DP  RH WIND       PRES   REMARKS
AVALON           N/A     77 N/A N/A MISG        N/A
FULLERTON      SUNNY     89  55  31 W7        29.72S
*GETTY CENTER    N/A     82  61  47 E1          N/A
HAWTHORNE      SUNNY     78  61  55 W8        29.74S
*LOS ALAMITOS  SUNNY     86  60  40 W10       29.74R
*REDONDO BEACH   N/A     73  63  70 CALM      29.74S
SANTA ANA      MOSUNNY   87  58  37 W6        29.73S
STA MONICA APT SUNNY     74  63  68 SW6       29.75S
TORRANCE       SUNNY     81  63  54 W12       29.75S
*UCLA            N/A     79  61  53 SE3       29.72S

$$

CAZ547-548-048-250300-
LA COUNTY VALLEYS AND INLAND EMPIRE


CITY           SKY/WX    TMP DP  RH WIND       PRES   REMARKS
BURBANK        SUNNY     94  50  22 SE7       29.74F HX  91
VAN NUYS       SUNNY     97  47  18 VRB6      29.74S HX  93

CITY           SKY/WX    TMP DP  RH WIND       PRES   REMARKS
CORONA AIRPORT CLEAR     93  54  26 W17       29.73R HX  90
CHINO          MOSUNNY   92  49  22 W15       29.74S
*CLAREMONT       N/A     91  46  20 SW7         N/A
MARCH AFB      CLEAR     95  44  17 NW8       29.79R HX  91
*NORTHRIDGE      N/A     93  41  16 W3          N/A
ONTARIO        MOSUNNY   95  48  20 W13       29.75R HX  91
*PASADENA        N/A     91  55  29 CALM        N/A
POMONA         SUNNY     90  48  24 W12       29.79S
RIVERSIDE      SUNNY     94  49  21 W13       29.74S HX  90
SAN BERNARDINO CLEAR     99  39  12 W15       29.76R HX  94
*SAN GABRIEL     N/A     89  49  25 W10       29.70R
*WHITEMAN AP   SUNNY     93  48  21 SE6       29.79S HX  90
*WHITTIER HILL   N/A     88  58  36 W7          N/A
*WOODLAND HILL   N/A     95  48  20 W6          N/A  HX  91

$$

CAZ054-055-250300-
LA AND SAN BERNARDINO COUNTY MOUNTAINS


CITY           SKY/WX    TMP DP  RH WIND       PRES   REMARKS
*ACTON           N/A    100  25   7 S12         N/A  HX  93
*BIG BEAR AIRP CLEAR     77  37  24 W8        30.23R
*BIG PINES       N/A     76  22  13 CALM        N/A
MT WILSON NWS    N/A     86   3   4 MISG        N/A
SANDBERG       SUNNY     86  38  18 NW9       30.04R

$$

CAZ028-029-059-060-099-250300-
ANTELOPE VALLEY AND SURROUNDING AREAS


CITY           SKY/WX    TMP DP  RH WIND       PRES   REMARKS
LANCASTER      SUNNY     96  40  14 W21       29.83R HX  92
PALMDALE       SUNNY     97  30   9 W21       29.84R HX  91

CITY           SKY/WX    TMP DP  RH WIND       PRES   REMARKS
29 PALMS       PTCLDY   106  38   9 SW17      29.83R HX 100
BARSTOW/DAGGET CLEAR    108  36   8 SW15      29.74S HX 101
BISHOP         SUNNY     99  20   6 S8        29.87S HX  92
CHINA LAKE     SUNNY    105  23   5 SW12G21   29.76S HX  97
EDWARDS AFB    MOSUNNY  101  32   9 SW20      29.80R HX  94
MOJAVE         FAIR      91  45  19 W21       29.85S
NEEDLES        PTCLDY   110  54  15 S22G29    29.68R HX 108
VICTORVILLE    SUNNY    100  34  10 S15       29.86R HX  94

$$

CAZ039-040-250300-
VENTURA AND SANTA BARBARA COUNTY COAST


CITY           SKY/WX    TMP DP  RH WIND       PRES   REMARKS
CAMARILLO      SUNNY     75  61  61 W7        29.75S
OXNARD AIRPORT SUNNY     70  61  73 W14       29.76R
*POINT MUGU    MOSUNNY   75  62  64 W10       29.76S
SBA APT/GOLETA SUNNY     75  62  64 SE8       29.73S
*SANTA BARBARA   N/A     79  61  53 CALM      29.81S
*VENTURA         N/A     76  61  59 SW3       29.78S

$$

CAZ044-045-250300-
VENTURA COUNTY VALLEYS


CITY           SKY/WX    TMP DP  RH WIND       PRES   REMARKS
*SIMI VALLEY     N/A     88  57  34 W3        29.70S
*OJAI            N/A     93  60  32 CALM      29.66F HX  92
*FILLMORE        N/A     92  65  40 CALM      29.65S HX  93

$$

CAZ053-250300-
VENTURA COUNTY MOUNTAINS


CITY           SKY/WX    TMP DP  RH WIND       PRES   REMARKS
*LOCKWOOD VLY    N/A     86  39  19 MISG        N/A
*ROSE VALLEY     N/A     91  45  19 MISG        N/A

$$

CAZ034-035-036-250300-
CENTRAL COAST AND SANTA YNEZ VALLEY


CITY           SKY/WX    TMP DP  RH WIND       PRES   REMARKS
SAN LUIS OBISP MOSUNNY   66  57  72 NW21      29.83S
SANTA MARIA    SUNNY     69  57  65 NW12      29.85S

CITY           SKY/WX    TMP DP  RH WIND       PRES   REMARKS
*CAL POLY SLO    N/A     70  59  68 W7G13       N/A
*CAMBRIA         N/A     62  58  86 E5        29.72F
*LOMPOC          N/A     68  55  64 MISG      29.86S
*PISMO BEACH     N/A     69  60  73 CALM      29.82S

$$

CAZ037-038-051-250300-
SAN LUIS OBISPO COUNTY INTERIOR AND CUYAMA VALLEY


CITY           SKY/WX    TMP DP  RH WIND       PRES   REMARKS
*CUYAMA          N/A     87  48  25 E3        29.76S
PASO ROBLES    SUNNY     94  47  20 S10       29.79S HX  90

$$

CAZ032-033-061-250300-
SOUTHERN DESERTS


CITY           SKY/WX    TMP DP  RH WIND       PRES   REMARKS
BLYTHE         PTCLDY   113  44  10 S6        29.63R HX 108
IMPERIAL       MOCLDY   111  50  13 SE17      29.59R HX 108
PALM SPRINGS   CLEAR    114  40   8 E8        29.64S HX 107
THERMAL        CLEAR    109  56  17 S5        29.57R HX 108

$$

ELSEWHERE ACROSS THE WESTERN UNITED STATES AND MEXICO


CITY           SKY/WX    TMP DP  RH WIND       PRES   REMARKS
DENVER, CO     MOCLDY    86  45  23 SE5       30.06R
GRAND CANYON,  CLOUDY    64  59  83 VRB7      30.28F
HONOLULU, HI   MOSUNNY   86  64  48 E14G23    29.99F
KAHULUI, MAUI  MOSUNNY   84  66  54 NE23G32   29.98F
LAKE TAHOE, CA SUNNY     78  38  23 VRB3      30.14S
LAS VEGAS, NV  PTCLDY   107  31   7 SW16G26   29.71S HX 100
MAMMOTH LAKES, FAIR      79  28  15 W15G26    30.19S
MEXICO CITY, M CLOUDY    61  48  63 N10       30.34R
PHOENIX, AZ    PTCLDY   111  41   9 SE6       29.69S HX 105
PORTLAND, OR   PTSUNNY   67  56  67 N9        30.20F
RENO, NV       MOSUNNY   86  34  15 NE14      30.00R
SALT LAKE CITY MOCLDY    90  33  13 N8        29.94F
SAN DIEGO, CA  PTCLDY    78  64  61 NW7       29.77S
SAN FRANCISCO, MOSUNNY   73  54  51 W24       29.86S
SAN JOSE, CA   MOSUNNY   80  53  39 NW15G23   29.83F
SEATTLE, WA    PTSUNNY   62  55  77 NE12      30.21S
TIJUANA, MEX   PTCLDY    77  61  57 W10       29.79S

$$

STATION/POSITION TIME  TEMP    WIND        PRES    VSBY  WAVE
                       AIR SEA DIR/SP/G                  HT/PER
                 (UTC) (F)     (DEG/KT/KT) (MB)    (MI)  (FT/S)
POINT ARGUELLO B NOT AVBL
WEST SANTA BARBA 0200   61 57  310/ 23/ 27 1008.6F         7/ 8
POINT CONCEPTION NOT AVBL
EAST SANTA BARBA 0100   67 66  270/ 17/ 19 1006.9F
SANTA MONICA BAY 0200   71 69  290/  8/  8 1007.0F         3/ 6



USA.gov is the U.S. government's official web portal to all federal, state and local government web resources and services.